Date String (YYYY-MM-DD hh:mm:ss) UTC,Instrument flags,absolute air pressure of the measurement (hPa),sample flow rate (lpm),inlet stack bypass flow (lpm),air temperature of the measurement (°C),ambient temperature measured by the external sensor (°C),aerosol sample conditioner tube jacket temperature (°C),OPC LED temperature (°C),internal box temperature (°C),relative humidity of the measurement (%),span deviation,mass concentration of particles derived from Lorenz-Mie calculation of OPC scattering (μg/m³),mass concentration of particles derived from Lorenz-Mie calculation of OPC scattering (μg/m³),mass concentration of particles derived from Lorenz-Mie calculation of OPC scattering (μg/m³)
DateTimeUTC,F1_M11,P_M11,Q1_M11,Q2_M11,T1_M11,T2_M11,T3_M11,T4_M11,T5_M11,U1_M11,ZSPAN_M11,X0_M11,X2_M11,X1_M11
2023-12-14 05:00:00,SystemResetWarning,0836.7,5.00,000.00,018.7,017.8,000.0,027.2,020.0,22.9,0000.1,0022.99,0017.93,0017.27
2023-12-14 05:01:00,SystemResetWarning,0836.7,5.00,000.00,018.7,017.8,000.0,027.2,020.0,22.9,0000.0,0023.61,0017.98,0017.31
2023-12-14 05:02:00,SystemResetWarning,0836.7,5.00,000.00,018.7,017.8,000.0,027.2,020.0,22.9,0000.1,0023.64,0017.95,0017.32
2023-12-14 05:03:00,SystemResetWarning,0836.7,5.00,000.00,018.7,017.8,000.0,027.2,020.0,22.9,0000.1,0022.96,0017.93,0017.31
2023-12-14 05:04:00,SystemResetWarning,0836.7,5.00,000.00,018.7,017.8,000.0,027.2,020.0,22.9,0000.1,0022.93,0017.94,0017.31
2023-12-14 05:05:00,SystemResetWarning,0836.8,4.99,000.00,018.7,017.8,000.0,027.2,020.0,22.9,0000.0,0022.88,0017.93,0017.29
2023-12-14 05:06:00,SystemResetWarning,0836.8,5.00,000.00,018.7,017.8,000.0,027.2,020.0,23.0,0000.2,0022.84,0017.99,0017.29
2023-12-14 05:07:00,SystemResetWarning,0836.8,5.00,000.00,018.7,017.8,000.0,027.2,020.0,23.0,0000.2,0022.47,0018.02,0017.30
2023-12-14 05:08:00,SystemResetWarning,0836.7,5.00,000.00,018.7,017.8,000.0,027.2,020.0,23.0,0000.1,0022.05,0018.01,0017.28
2023-12-14 05:09:00,SystemResetWarning,0836.7,5.00,000.00,018.7,017.8,000.0,027.2,020.0,23.1,0000.1,0021.95,0018.01,0017.28
2023-12-14 05:10:00,SystemResetWarning,0836.7,5.00,000.00,018.7,017.8,000.0,027.2,020.0,23.1,0000.1,0022.26,0018.07,0017.31
2023-12-14 05:11:00,SystemResetWarning,0836.7,5.01,000.00,018.7,017.8,000.0,027.2,020.0,23.1,0000.1,0022.65,0018.13,0017.32
2023-12-14 05:12:00,SystemResetWarning,0836.7,5.00,000.00,018.7,017.8,000.0,027.2,020.0,23.2,0000.2,0022.20,0018.10,0017.28
2023-12-14 05:13:00,SystemResetWarning,0836.8,5.00,000.00,018.7,017.8,000.0,027.2,020.0,23.2,0000.2,0022.20,0018.14,0017.26
2023-12-14 05:14:00,SystemResetWarning,0836.8,4.99,000.00,018.7,017.8,000.0,027.2,020.0,23.3,0000.2,0022.18,0018.10,0017.24
2023-12-14 05:15:00,SystemResetWarning,0836.7,5.00,000.00,018.7,017.8,000.0,027.2,020.0,23.3,0000.2,0022.52,0018.04,0017.20
2023-12-14 05:16:00,SystemResetWarning,0836.8,5.00,000.00,018.7,017.8,000.0,027.2,020.0,23.3,0000.2,0023.07,0018.02,0017.18
2023-12-14 05:17:00,SystemResetWarning,0836.8,5.00,000.00,018.7,017.8,000.0,027.2,020.0,23.4,0000.1,0023.03,0018.00,0017.17
2023-12-14 05:18:00,SystemResetWarning,0836.8,5.01,000.00,018.7,017.8,000.0,027.2,020.0,23.4,0000.1,0022.98,0017.98,0017.14
2023-12-14 05:19:00,SystemResetWarning,0836.8,5.01,000.00,018.7,017.8,000.0,027.2,020.0,23.4,0000.2,0023.10,0018.00,0017.13
2023-12-14 05:20:00,SystemResetWarning,0836.8,5.00,000.00,018.7,017.8,000.0,027.2,020.0,23.5,0000.2,0023.25,0018.01,0017.12
2023-12-14 05:21:00,SystemResetWarning,0836.7,5.00,000.00,018.7,017.8,000.0,027.2,020.0,23.5,0000.1,0023.06,0017.98,0017.08
2023-12-14 05:22:00,SystemResetWarning,0836.6,4.99,000.00,018.7,017.7,000.0,027.2,020.0,23.5,0000.1,0022.64,0017.89,0017.05
2023-12-14 05:23:00,SystemResetWarning,0836.5,4.99,000.00,018.7,017.7,000.0,027.2,020.0,23.5,0000.1,0022.44,0017.85,0017.03
2023-12-14 05:24:00,SystemResetWarning,0836.5,4.99,000.00,018.7,017.7,000.0,027.2,020.0,23.5,0000.2,0023.03,0017.81,0017.04
2023-12-14 05:25:00,SystemResetWarning,0836.5,5.00,000.00,018.7,017.7,000.0,027.2,020.0,23.6,0000.1,0023.37,0017.82,0017.04
2023-12-14 05:26:00,SystemResetWarning,0836.5,5.01,000.00,018.7,017.7,000.0,027.2,020.0,23.6,0000.1,0023.35,0017.85,0017.04
2023-12-14 05:27:00,SystemResetWarning,0836.5,5.01,000.00,018.7,017.7,000.0,027.1,020.0,23.6,0000.1,0022.67,0017.82,0017.05
2023-12-14 05:28:00,SystemResetWarning,0836.5,5.00,000.00,018.7,017.7,000.0,027.1,020.0,23.6,0000.2,0022.60,0017.77,0017.05
2023-12-14 05:29:00,SystemResetWarning,0836.6,5.00,000.00,018.7,017.7,000.0,027.1,020.0,23.7,0000.2,0022.70,0017.76,0017.05
2023-12-14 05:30:00,SystemResetWarning,0836.7,5.00,000.00,018.7,017.7,000.0,027.1,020.0,23.7,0000.1,0022.70,0017.74,0017.05
2023-12-14 05:31:00,SystemResetWarning,0836.6,5.00,000.00,018.7,017.8,000.0,027.1,020.0,23.7,0000.0,0022.68,0017.70,0017.02
2023-12-14 05:32:00,SystemResetWarning,0836.6,4.99,000.00,018.7,017.8,000.0,027.1,020.0,23.8,0000.1,0023.12,0017.70,0016.98
2023-12-14 05:33:00,SystemResetWarning,0836.6,5.00,000.00,018.7,017.8,000.0,027.1,020.0,23.8,0000.4,0023.41,0017.69,0016.94
2023-12-14 05:34:00,SystemResetWarning,0836.5,5.00,000.00,018.7,017.8,000.0,027.1,020.0,23.8,0000.4,0023.55,0017.69,0016.90
2023-12-14 05:35:00,SystemResetWarning,0836.5,5.00,000.00,018.7,017.8,000.0,027.1,020.0,23.8,0000.1,0022.92,0017.68,0016.85
2023-12-14 05:36:00,SystemResetWarning,0836.5,5.00,000.00,018.7,017.7,000.0,027.1,020.0,23.8,0000.1,0022.76,0017.67,0016.82
2023-12-14 05:37:00,SystemResetWarning,0836.5,5.00,000.00,018.7,017.7,000.0,027.1,020.0,23.8,0000.4,0022.44,0017.64,0016.77
2023-12-14 05:38:00,SystemResetWarning,0836.4,5.00,000.00,018.7,017.7,000.0,027.1,020.0,23.8,0000.4,0022.85,0017.68,0016.76
2023-12-14 05:39:00,SystemResetWarning,0836.5,5.00,000.00,018.7,017.7,000.0,027.1,020.0,23.8,0000.2,0024.08,0017.71,0016.76
2023-12-14 05:40:00,SystemResetWarning,0836.4,5.00,000.00,018.7,017.7,000.0,027.1,020.0,23.8,0000.2,0024.37,0017.67,0016.73
2023-12-14 05:41:00,SystemResetWarning,0836.4,4.99,000.00,018.7,017.7,000.0,027.1,020.0,23.8,0000.3,0024.14,0017.58,0016.68
2023-12-14 05:42:00,SystemResetWarning,0836.5,5.00,000.00,018.7,017.7,000.0,027.1,020.0,23.8,0000.2,0024.05,0017.58,0016.69
2023-12-14 05:43:00,SystemResetWarning,0836.4,5.00,000.00,018.7,017.7,000.0,027.1,020.0,23.9,0000.4,0023.71,0017.57,0016.71
2023-12-14 05:44:00,SystemResetWarning,0836.5,5.00,000.00,018.7,017.7,000.0,027.1,020.0,23.9,0000.4,0023.73,0017.56,0016.73
2023-12-14 05:45:00,SystemResetWarning,0836.5,5.01,000.00,018.7,017.7,000.0,027.1,020.0,23.9,0000.4,0023.71,0017.55,0016.74
2023-12-14 05:46:00,SystemResetWarning,0836.5,5.00,000.00,018.7,017.7,000.0,027.1,020.0,23.9,0000.4,0023.60,0017.52,0016.75
2023-12-14 05:47:00,SystemResetWarning,0836.6,5.00,000.00,018.7,017.7,000.0,027.1,020.0,23.9,0000.3,0023.57,0017.51,0016.75
2023-12-14 05:48:00,SystemResetWarning,0836.6,5.00,000.00,018.7,017.7,000.0,027.1,020.0,24.0,0000.2,0023.54,0017.52,0016.75
2023-12-14 05:49:00,SystemResetWarning,0836.6,5.00,000.00,018.7,017.7,000.0,027.1,020.0,25.7,-000.0,0023.34,0017.50,0016.74
2023-12-14 05:50:00,SystemResetWarning,0836.5,5.00,000.00,018.7,017.7,000.0,027.1,020.0,26.3,-000.1,0022.51,0017.48,0016.70
2023-12-14 05:51:00,SystemResetWarning,0836.5,5.00,000.00,018.7,017.7,000.0,027.1,020.0,24.9,-000.3,0021.50,0017.43,0016.68
2023-12-14 05:52:00,SystemResetWarning,0836.5,5.00,000.00,018.7,017.7,000.0,027.1,020.0,24.4,-000.2,0021.47,0017.42,0016.68
2023-12-14 05:53:00,SystemResetWarning,0836.5,5.00,000.00,018.7,017.7,000.0,027.1,020.0,24.3,-000.2,0021.70,0017.42,0016.67
2023-12-14 05:54:00,SystemResetWarning,0836.5,5.00,000.00,018.7,017.7,000.0,027.1,020.0,24.2,-000.3,0021.89,0017.40,0016.64
2023-12-14 05:55:00,SystemResetWarning,0836.5,5.01,000.00,018.7,017.7,000.0,027.1,020.0,24.2,-000.5,0021.70,0017.38,0016.62
2023-12-14 05:56:00,SystemResetWarning,0836.4,5.01,000.00,018.7,017.7,000.0,027.1,020.0,24.2,-000.5,0021.54,0017.38,0016.60
2023-12-14 05:57:00,SystemResetWarning,0836.4,5.01,000.00,018.7,017.7,000.0,027.1,020.0,24.1,-000.4,0021.55,0017.38,0016.60
2023-12-14 05:58:00,SystemResetWarning,0836.4,5.00,000.00,018.7,017.7,000.0,027.1,020.0,24.1,-000.3,0021.50,0017.39,0016.59
2023-12-14 05:59:00,SystemResetWarning,0836.3,4.99,000.00,018.7,017.7,000.0,027.1,020.0,24.1,-000.4,0021.34,0017.34,0016.60
